Time,TemperatureF,DewpointF,PressureIn,WindDirection,WindDirectionDegrees,WindSpeedMPH,WindSpeedGustMPH,Humidity,HourlyPrecipIn,Conditions,Clouds,dailyrainin,SolarRadiationWatts/m^2,SoftwareType,DateUTC
2013-02-17 00:11:00,22.0,6.0,-100.00,WSW,248,12.0,22.0,49,0.00,,,0.00,0.000000,,2013-02-17 07:11:00,
2013-02-17 00:21:00,22.0,6.0,-100.00,WSW,248,12.0,22.0,49,0.00,,,0.00,0.000000,,2013-02-17 07:21:00,
2013-02-17 00:31:00,22.0,6.0,-100.00,WSW,248,12.0,22.0,49,0.00,,,0.00,0.000000,,2013-02-17 07:31:00,
2013-02-17 00:41:00,22.0,6.0,-100.00,WSW,248,12.0,22.0,49,0.00,,,0.00,0.000000,,2013-02-17 07:41:00,
2013-02-17 00:51:00,22.0,6.0,-100.00,WSW,248,12.0,22.0,49,0.00,,,0.00,0.000000,,2013-02-17 07:51:00,
2013-02-17 00:52:00,19.0,5.0,-100.00,WSW,243,13.0,22.0,54,0.00,,,0.00,0.000000,,2013-02-17 07:52:00,
2013-02-17 01:21:00,19.0,5.0,-100.00,WSW,243,13.0,22.0,54,0.00,,,0.00,0.000000,,2013-02-17 08:21:00,
2013-02-17 01:31:00,19.0,5.0,-100.00,WSW,243,13.0,22.0,54,0.00,,,0.00,0.000000,,2013-02-17 08:31:00,
2013-02-17 01:42:00,19.0,5.0,-100.00,WSW,243,13.0,22.0,54,0.00,,,0.00,0.000000,,2013-02-17 08:42:00,
2013-02-17 02:21:00,18.0,5.0,-100.00,WSW,252,8.0,20.0,55,0.00,,,0.00,0.000000,,2013-02-17 09:21:00,
2013-02-17 02:31:00,18.0,5.0,-100.00,WSW,252,8.0,20.0,55,0.00,,,0.00,0.000000,,2013-02-17 09:31:00,
2013-02-17 02:42:00,18.0,5.0,-100.00,WSW,252,8.0,20.0,55,0.00,,,0.00,0.000000,,2013-02-17 09:42:00,
2013-02-17 02:51:00,18.0,5.0,-100.00,WSW,252,8.0,20.0,55,0.00,,,0.00,0.000000,,2013-02-17 09:51:00,
2013-02-17 03:11:00,21.0,4.0,-100.00,WSW,238,11.0,19.0,47,0.00,,,0.00,0.000000,,2013-02-17 10:11:00,
2013-02-17 03:21:00,21.0,4.0,-100.00,WSW,238,11.0,19.0,47,0.00,,,0.00,0.000000,,2013-02-17 10:21:00,
2013-02-17 03:31:00,21.0,4.0,-100.00,WSW,238,11.0,19.0,47,0.00,,,0.00,0.000000,,2013-02-17 10:31:00,
2013-02-17 03:41:00,21.0,4.0,-100.00,WSW,238,11.0,19.0,47,0.00,,,0.00,0.000000,,2013-02-17 10:41:00,
2013-02-17 03:51:00,21.0,4.0,-100.00,WSW,238,11.0,19.0,47,0.00,,,0.00,0.000000,,2013-02-17 10:51:00,
2013-02-17 03:52:00,21.0,3.0,-100.00,SW,233,12.0,21.0,45,0.00,,,0.00,0.000000,,2013-02-17 10:52:00,
2013-02-17 04:11:00,21.0,3.0,-100.00,SW,233,12.0,21.0,45,0.00,,,0.00,0.000000,,2013-02-17 11:11:00,
2013-02-17 04:21:00,21.0,3.0,-100.00,SW,233,12.0,21.0,45,0.00,,,0.00,0.000000,,2013-02-17 11:21:00,
2013-02-17 04:32:00,21.0,3.0,-100.00,SW,233,12.0,21.0,45,0.00,,,0.00,0.000000,,2013-02-17 11:32:00,
2013-02-17 04:42:00,21.0,3.0,-100.00,SW,233,12.0,21.0,45,0.00,,,0.00,0.000000,,2013-02-17 11:42:00,
2013-02-17 04:52:00,22.0,1.0,-100.00,WSW,239,10.0,21.0,40,0.00,,,0.00,0.000000,,2013-02-17 11:52:00,
2013-02-17 05:22:00,22.0,1.0,-100.00,WSW,239,10.0,21.0,40,0.00,,,0.00,0.000000,,2013-02-17 12:22:00,
2013-02-17 05:32:00,22.0,1.0,-100.00,WSW,239,10.0,21.0,40,0.00,,,0.00,0.000000,,2013-02-17 12:32:00,
2013-02-17 05:42:00,22.0,1.0,-100.00,WSW,239,10.0,21.0,40,0.00,,,0.00,0.000000,,2013-02-17 12:42:00,
2013-02-17 06:22:00,21.0,0.0,-100.00,SW,234,8.0,17.0,39,0.00,,,0.00,0.000000,,2013-02-17 13:22:00,
2013-02-17 06:32:00,21.0,0.0,-100.00,SW,234,8.0,17.0,39,0.00,,,0.00,0.000000,,2013-02-17 13:32:00,
2013-02-17 06:41:00,21.0,0.0,-100.00,SW,234,8.0,17.0,39,0.00,,,0.00,0.000000,,2013-02-17 13:41:00,
2013-02-17 06:51:00,21.0,0.0,-100.00,SW,234,8.0,17.0,39,0.00,,,0.00,0.000000,,2013-02-17 13:51:00,
2013-02-17 06:52:00,20.0,-1.0,-100.00,SW,220,6.0,14.0,39,0.00,,,0.00,0.000000,,2013-02-17 13:52:00,
2013-02-17 07:11:00,20.0,-1.0,-100.00,SW,220,6.0,14.0,39,0.00,,,0.00,0.000000,,2013-02-17 14:11:00,
2013-02-17 07:21:00,20.0,-1.0,-100.00,SW,220,6.0,14.0,39,0.00,,,0.00,0.000000,,2013-02-17 14:21:00,
2013-02-17 07:32:00,20.0,-1.0,-100.00,SW,220,6.0,14.0,39,0.00,,,0.00,0.000000,,2013-02-17 14:32:00,
2013-02-17 07:42:00,20.0,-1.0,-100.00,SW,220,6.0,14.0,39,0.00,,,0.00,0.000000,,2013-02-17 14:42:00,
2013-02-17 07:52:00,21.0,-1.0,-100.00,WSW,248,7.0,11.0,38,0.00,,,0.00,19.000000,,2013-02-17 14:52:00,
2013-02-17 08:11:00,21.0,-1.0,-100.00,WSW,248,7.0,11.0,38,0.00,,,0.00,19.000000,,2013-02-17 15:11:00,
2013-02-17 08:21:00,21.0,-1.0,-100.00,WSW,248,7.0,11.0,38,0.00,,,0.00,19.000000,,2013-02-17 15:21:00,
2013-02-17 08:32:00,21.0,-1.0,-100.00,WSW,248,7.0,11.0,38,0.00,,,0.00,19.000000,,2013-02-17 15:32:00,
2013-02-17 08:41:00,21.0,-1.0,-100.00,WSW,248,7.0,11.0,38,0.00,,,0.00,19.000000,,2013-02-17 15:41:00,
2013-02-17 09:11:00,30.0,2.0,-100.00,SSW,209,10.0,19.0,29,0.00,,,0.00,302.000000,,2013-02-17 16:11:00,
2013-02-17 09:21:00,30.0,2.0,-100.00,SSW,209,10.0,19.0,29,0.00,,,0.00,302.000000,,2013-02-17 16:21:00,
2013-02-17 09:32:00,30.0,2.0,-100.00,SSW,209,10.0,19.0,29,0.00,,,0.00,302.000000,,2013-02-17 16:32:00,
2013-02-17 09:42:00,30.0,2.0,-100.00,SSW,209,10.0,19.0,29,0.00,,,0.00,302.000000,,2013-02-17 16:42:00,
2013-02-17 09:51:00,30.0,2.0,-100.00,SSW,209,10.0,19.0,29,0.00,,,0.00,302.000000,,2013-02-17 16:51:00,
2013-02-17 09:52:00,33.0,2.0,-100.00,SW,220,14.0,25.0,26,0.00,,,0.00,552.000000,,2013-02-17 16:52:00,
2013-02-17 10:11:00,33.0,2.0,-100.00,SW,220,14.0,25.0,26,0.00,,,0.00,552.000000,,2013-02-17 17:11:00,
2013-02-17 10:21:00,33.0,2.0,-100.00,SW,220,14.0,25.0,26,0.00,,,0.00,552.000000,,2013-02-17 17:21:00,
2013-02-17 10:32:00,33.0,2.0,-100.00,SW,220,14.0,25.0,26,0.00,,,0.00,552.000000,,2013-02-17 17:32:00,
2013-02-17 10:41:00,33.0,2.0,-100.00,SW,220,14.0,25.0,26,0.00,,,0.00,552.000000,,2013-02-17 17:41:00,
2013-02-17 10:52:00,36.0,4.0,-100.00,SW,219,13.0,26.0,25,0.00,,,0.00,602.000000,,2013-02-17 17:52:00,
2013-02-17 11:22:00,36.0,4.0,-100.00,SW,219,13.0,26.0,25,0.00,,,0.00,602.000000,,2013-02-17 18:22:00,
2013-02-17 11:33:00,36.0,4.0,-100.00,SW,219,13.0,26.0,25,0.00,,,0.00,602.000000,,2013-02-17 18:33:00,
2013-02-17 11:42:00,36.0,4.0,-100.00,SW,219,13.0,26.0,25,0.00,,,0.00,602.000000,,2013-02-17 18:42:00,
2013-02-17 12:21:00,35.0,4.0,-100.00,SW,232,15.0,26.0,26,0.00,,,0.00,800.000000,,2013-02-17 19:21:00,
2013-02-17 12:32:00,35.0,4.0,-100.00,SW,232,15.0,26.0,26,0.00,,,0.00,800.000000,,2013-02-17 19:32:00,
2013-02-17 12:42:00,35.0,4.0,-100.00,SW,232,15.0,26.0,26,0.00,,,0.00,800.000000,,2013-02-17 19:42:00,
2013-02-17 12:51:00,35.0,4.0,-100.00,SW,232,15.0,26.0,26,0.00,,,0.00,800.000000,,2013-02-17 19:51:00,
2013-02-17 12:52:00,39.0,5.0,-100.00,SSW,209,12.0,27.0,24,0.00,,,0.00,603.000000,,2013-02-17 19:52:00,
2013-02-17 13:11:00,39.0,5.0,-100.00,SSW,209,12.0,27.0,24,0.00,,,0.00,603.000000,,2013-02-17 20:11:00,
2013-02-17 13:21:00,39.0,5.0,-100.00,SSW,209,12.0,27.0,24,0.00,,,0.00,603.000000,,2013-02-17 20:21:00,
2013-02-17 13:32:00,39.0,5.0,-100.00,SSW,209,12.0,27.0,24,0.00,,,0.00,603.000000,,2013-02-17 20:32:00,
2013-02-17 13:42:00,39.0,5.0,-100.00,SSW,209,12.0,27.0,24,0.00,,,0.00,603.000000,,2013-02-17 20:42:00,
2013-02-17 14:52:00,32.0,6.0,-100.00,West,269,17.0,33.0,33,-99.99,,,0.00,604.000000,,2013-02-17 21:52:00,
2013-02-17 15:12:00,32.0,6.0,-100.00,West,269,17.0,33.0,33,-99.99,,,0.00,604.000000,,2013-02-17 22:12:00,
2013-02-17 15:22:00,32.0,6.0,-100.00,West,269,17.0,33.0,33,-99.99,,,0.00,604.000000,,2013-02-17 22:22:00,
2013-02-17 15:32:00,32.0,6.0,-100.00,West,269,17.0,33.0,33,-99.99,,,0.00,604.000000,,2013-02-17 22:32:00,
2013-02-17 15:42:00,32.0,6.0,-100.00,West,269,17.0,33.0,33,-99.99,,,0.00,604.000000,,2013-02-17 22:42:00,
2013-02-17 15:52:00,31.0,8.0,-100.00,West,266,14.0,32.0,38,0.00,,,0.00,173.000000,,2013-02-17 22:52:00,
2013-02-17 16:11:00,31.0,8.0,-100.00,West,266,14.0,32.0,38,0.00,,,0.00,173.000000,,2013-02-17 23:11:00,
2013-02-17 16:21:00,31.0,8.0,-100.00,West,266,14.0,32.0,38,0.00,,,0.00,173.000000,,2013-02-17 23:21:00,
2013-02-17 16:32:00,31.0,8.0,-100.00,West,266,14.0,32.0,38,0.00,,,0.00,173.000000,,2013-02-17 23:32:00,
2013-02-17 16:42:00,31.0,8.0,-100.00,West,266,14.0,32.0,38,0.00,,,0.00,173.000000,,2013-02-17 23:42:00,
2013-02-17 16:52:00,24.0,12.0,-100.00,WNW,291,16.0,24.0,59,0.00,,,0.00,81.000000,,2013-02-17 23:52:00,
2013-02-17 17:11:00,24.0,12.0,-100.00,WNW,291,16.0,24.0,59,0.00,,,0.00,81.000000,,2013-02-18 00:11:00,
2013-02-17 17:22:00,24.0,12.0,-100.00,WNW,291,16.0,24.0,59,0.00,,,0.00,81.000000,,2013-02-18 00:22:00,
2013-02-17 17:32:00,24.0,12.0,-100.00,WNW,291,16.0,24.0,59,0.00,,,0.00,81.000000,,2013-02-18 00:32:00,
2013-02-17 17:41:00,24.0,12.0,-100.00,WNW,291,16.0,24.0,59,0.00,,,0.00,81.000000,,2013-02-18 00:41:00,
2013-02-17 18:21:00,19.0,13.0,-100.00,WNW,292,16.0,27.0,78,0.00,,,0.00,21.000000,,2013-02-18 01:21:00,
2013-02-17 18:32:00,19.0,13.0,-100.00,WNW,292,16.0,27.0,78,0.00,,,0.00,21.000000,,2013-02-18 01:32:00,
2013-02-17 18:41:00,19.0,13.0,-100.00,WNW,292,16.0,27.0,78,0.00,,,0.00,21.000000,,2013-02-18 01:41:00,
2013-02-17 18:51:00,19.0,13.0,-100.00,WNW,292,16.0,27.0,78,0.00,,,0.00,21.000000,,2013-02-18 01:51:00,
2013-02-17 18:52:00,15.0,11.0,-100.00,WNW,283,16.0,27.0,83,0.00,,,0.00,0.000000,,2013-02-18 01:52:00,
2013-02-17 19:21:00,15.0,11.0,-100.00,WNW,283,16.0,27.0,83,0.00,,,0.00,0.000000,,2013-02-18 02:21:00,
2013-02-17 19:32:00,15.0,11.0,-100.00,WNW,283,16.0,27.0,83,0.00,,,0.00,0.000000,,2013-02-18 02:32:00,
2013-02-17 19:41:00,15.0,11.0,-100.00,WNW,283,16.0,27.0,83,0.00,,,0.00,0.000000,,2013-02-18 02:41:00,
2013-02-17 20:11:00,15.0,11.0,-100.00,West,281,15.0,26.0,82,0.00,,,0.00,0.000000,,2013-02-18 03:11:00,
2013-02-17 20:21:00,15.0,11.0,-100.00,West,281,15.0,26.0,82,0.00,,,0.00,0.000000,,2013-02-18 03:21:00,
2013-02-17 20:32:00,15.0,11.0,-100.00,West,281,15.0,26.0,82,0.00,,,0.00,0.000000,,2013-02-18 03:32:00,
2013-02-17 20:42:00,15.0,11.0,-100.00,West,281,15.0,26.0,82,0.00,,,0.00,0.000000,,2013-02-18 03:42:00,
2013-02-17 20:51:00,15.0,11.0,-100.00,West,281,15.0,26.0,82,0.00,,,0.00,0.000000,,2013-02-18 03:51:00,
2013-02-17 21:21:00,14.0,7.0,-100.00,West,277,14.0,23.0,73,0.00,,,0.00,0.000000,,2013-02-18 04:21:00,
2013-02-17 21:32:00,14.0,7.0,-100.00,West,277,14.0,23.0,73,0.00,,,0.00,0.000000,,2013-02-18 04:32:00,
2013-02-17 21:41:00,14.0,7.0,-100.00,West,277,14.0,23.0,73,0.00,,,0.00,0.000000,,2013-02-18 04:41:00,
2013-02-17 21:51:00,14.0,7.0,-100.00,West,277,14.0,23.0,73,0.00,,,0.00,0.000000,,2013-02-18 04:51:00,
2013-02-17 21:52:00,14.0,8.0,-100.00,West,281,15.0,22.0,76,0.00,,,0.00,0.000000,,2013-02-18 04:52:00,
2013-02-17 22:11:00,14.0,8.0,-100.00,West,281,15.0,22.0,76,0.00,,,0.00,0.000000,,2013-02-18 05:11:00,
2013-02-17 22:21:00,14.0,8.0,-100.00,West,281,15.0,22.0,76,0.00,,,0.00,0.000000,,2013-02-18 05:21:00,
2013-02-17 22:31:00,14.0,8.0,-100.00,West,281,15.0,22.0,76,0.00,,,0.00,0.000000,,2013-02-18 05:31:00,
2013-02-17 22:41:00,14.0,8.0,-100.00,West,281,15.0,22.0,76,0.00,,,0.00,0.000000,,2013-02-18 05:41:00,
2013-02-17 23:21:00,12.0,5.0,-100.00,West,275,11.0,23.0,73,0.00,,,0.00,0.000000,,2013-02-18 06:21:00,
2013-02-17 23:32:00,12.0,5.0,-100.00,West,275,11.0,23.0,73,0.00,,,0.00,0.000000,,2013-02-18 06:32:00,
2013-02-17 23:42:00,12.0,5.0,-100.00,West,275,11.0,23.0,73,0.00,,,0.00,0.000000,,2013-02-18 06:42:00,
2013-02-17 23:51:00,12.0,5.0,-100.00,West,275,11.0,23.0,73,0.00,,,0.00,0.000000,,2013-02-18 06:51:00,